Location: Sungai Laei
(2.6000°N, 113.7167°E)
Time: 10:04:43
(UTC+00:00)

Cosmos 1943 Rocket - Pass Details

Date: 22 May 2022
Orbit: 810 x 845 km, 71.0° (Epoch: 06 July)

Event Time Altitude Azimuth Distance (km) Brightness Sun altitude
Rises 21:35:40 0° 303° (WNW) 3,386 5.0 -9.9°
Drops below altitude 10° 21:41:18 10° 258° (WSW) 2,449 3.9 -8.6°
Maximum altitude 21:41:32 10° 255° (WSW) 2,447 3.9 -8.5°
Enters shadow 21:41:51 10° 252° (WSW) 2,450 3.9 -8.4°
Exits shadow 21:44:32 - 226° (SW) 2,715 4.3 -7.8°
Sets 21:47:27 0° 207° (SSW) 3,372 4.9 -7.1°
